Location: Winthrop
(48.4780°N, 120.1850°W)
Time: 00:57:42
(UTC-07:00)

S-56A Canister/Altair - Pass Details

Date: 03 June 2023
Orbit: 640 x 2489 km, 38.9° (Epoch: 29 September)

Event Time Altitude Azimuth Distance (km) Brightness Sun altitude
Rises 22:07:21 0° 232° (SW) 5,456 11.9 -9.4°
Reaches altitude 10° 22:10:47 10° 227° (SW) 4,653 11.5 -9.8°
Maximum altitude 22:23:35 49° 159° (SSE) 2,973 10.1 -11.1°
Drops below altitude 10° 22:37:31 10° 91° (E) 5,047 11.4 -12.4°
Sets 22:41:25 0° 87° (E) 5,937 11.8 -12.7°
